Location: 22
(39.7117°N, 89.5929°W)
Time: 00:21:56
(UTC-05:00)

A-11 Canister half - Pass Details

Date: 13 June 2023
Orbit: 1524 x 1684 km, 47.3° (Epoch: 29 September)

Event Time Altitude Azimuth Distance (km) Brightness Sun altitude
Rises 03:06:48 0° 296° (WNW) 4,703 11.5 -20.3°
Reaches altitude 10° 03:10:11 10° 288° (WNW) 3,734 10.9 -20.0°
Maximum altitude 03:18:16 33° 228° (SW) 2,410 9.5 -19.1°
Drops below altitude 10° 03:26:34 10° 169° (S) 3,827 10.7 -18.2°
Sets 03:30:07 0° 160° (SSE) 4,834 11.3 -17.8°
